Date String (YYYY-MM-DD hh:mm:ss) UTC,Instrument flags,absolute air pressure of the measurement (hPa),sample flow rate (lpm),inlet stack bypass flow (lpm),air temperature of the measurement (°C),ambient temperature measured by the external sensor (°C),aerosol sample conditioner tube jacket temperature (°C),OPC LED temperature (°C),internal box temperature (°C),relative humidity of the measurement (%),span deviation,mass concentration of particles derived from Lorenz-Mie calculation of OPC scattering (μg/m³),mass concentration of particles derived from Lorenz-Mie calculation of OPC scattering (μg/m³),mass concentration of particles derived from Lorenz-Mie calculation of OPC scattering (μg/m³)
DateTimeUTC,F1_M11,P_M11,Q1_M11,Q2_M11,T1_M11,T2_M11,T3_M11,T4_M11,T5_M11,U1_M11,ZSPAN_M11,X2_M11,X0_M11,X1_M11
2023-06-05 16:00:00,SystemResetWarning,0835.5,5.00,000.00,029.7,027.0,000.0,038.1,031.2,30.7,0000.9,0007.53,0011.66,0007.14
2023-06-05 16:01:00,SystemResetWarning,0835.5,5.00,000.00,029.7,027.2,000.0,038.1,031.2,30.4,0001.0,0007.45,0011.43,0007.10
2023-06-05 16:02:00,SystemResetWarning,0835.5,4.99,000.00,029.7,027.4,000.0,038.0,031.2,30.4,0001.1,0007.43,0011.36,0007.07
2023-06-05 16:03:00,SystemResetWarning,0835.4,5.00,000.00,029.7,027.6,000.0,038.0,031.2,30.3,0001.0,0007.40,0011.40,0007.03
2023-06-05 16:04:00,SystemResetWarning,0835.4,5.00,000.00,029.7,027.8,000.0,038.0,031.3,30.3,0001.0,0007.34,0011.34,0006.98
2023-06-05 16:05:00,SystemResetWarning,0835.4,5.00,000.00,029.7,027.9,000.0,038.0,031.3,30.8,0001.1,0007.29,0011.23,0006.96
2023-06-05 16:06:00,SystemResetWarning,0835.5,4.98,000.00,029.7,028.0,000.0,038.0,031.3,31.0,0001.1,0007.27,0011.18,0006.95
2023-06-05 16:07:00,SystemResetWarning,0835.3,4.99,000.00,029.7,028.1,000.0,038.1,031.3,31.2,0001.1,0007.33,0011.25,0007.01
2023-06-05 16:08:00,SystemResetWarning,0835.4,5.00,000.00,029.7,028.2,000.0,038.1,031.3,30.7,0001.1,0007.53,0011.57,0007.18
2023-06-05 16:09:00,SystemResetWarning,0835.3,5.01,000.00,029.7,028.2,000.0,038.1,031.4,30.9,0000.9,0007.63,0011.62,0007.32
2023-06-05 16:10:00,SystemResetWarning,0835.3,5.01,000.00,029.8,028.3,000.0,038.1,031.4,30.6,0000.9,0007.63,0010.85,0007.35
2023-06-05 16:11:00,SystemResetWarning,0835.3,4.99,000.00,029.8,028.3,000.0,038.1,031.4,30.6,0001.0,0007.63,0010.83,0007.35
2023-06-05 16:12:00,SystemResetWarning,0835.3,4.99,000.00,029.8,028.4,000.0,038.1,031.4,30.6,0001.1,0007.70,0010.97,0007.41
2023-06-05 16:13:00,SystemResetWarning,0835.3,5.00,000.00,029.8,028.4,000.0,038.1,031.5,30.8,0001.0,0007.73,0011.08,0007.44
2023-06-05 16:14:00,SystemResetWarning,0835.3,5.01,000.00,029.8,028.4,000.0,038.1,031.5,31.0,0000.9,0007.74,0011.04,0007.45
2023-06-05 16:15:00,SystemResetWarning,0835.3,5.01,000.00,029.9,028.5,000.0,038.1,031.5,31.0,0000.9,0007.82,0011.14,0007.50
2023-06-05 16:16:00,SystemResetWarning,0835.3,5.00,000.00,029.9,028.5,000.0,038.2,031.5,30.9,0000.7,0007.84,0011.19,0007.51
2023-06-05 16:17:00,SystemResetWarning,0835.2,4.99,000.00,029.9,028.5,000.0,038.2,031.6,30.8,0000.7,0007.85,0011.22,0007.50
2023-06-05 16:18:00,SystemResetWarning,0835.2,5.00,000.00,029.9,028.4,000.0,038.2,031.6,30.6,0000.6,0007.82,0011.13,0007.47
2023-06-05 16:19:00,SystemResetWarning,0835.2,4.98,000.00,029.9,027.0,000.0,038.1,031.4,31.1,0000.5,0007.78,0011.09,0007.41
2023-06-05 16:20:00,SystemResetWarning,0835.2,5.01,000.00,029.9,026.0,000.0,038.0,031.3,31.7,0000.6,0007.76,0011.34,0007.38
2023-06-05 16:21:00,SystemResetWarning,0835.2,5.01,000.00,029.8,025.9,000.0,038.0,031.1,31.6,0000.7,0007.71,0011.41,0007.34
2023-06-05 16:22:00,SystemResetWarning,0835.2,5.01,000.00,029.7,026.1,000.0,038.0,031.1,31.2,0000.9,0007.71,0011.40,0007.32
2023-06-05 16:23:00,SystemResetWarning,0835.2,5.00,000.00,029.6,026.4,000.0,038.0,031.1,31.0,0001.1,0007.68,0011.32,0007.29
2023-06-05 16:24:00,SystemResetWarning,0835.3,5.00,000.00,029.6,026.7,000.0,038.0,031.1,30.8,0001.2,0007.66,0011.17,0007.28
2023-06-05 16:25:00,SystemResetWarning,0835.3,5.00,000.00,029.6,027.0,000.0,038.0,031.1,31.1,0001.6,0007.59,0011.06,0007.22
2023-06-05 16:26:00,SystemResetWarning,0835.2,5.00,000.00,029.6,027.3,000.0,038.0,031.2,30.8,0001.7,0007.52,0010.93,0007.15
2023-06-05 16:27:00,SystemResetWarning,0835.2,4.99,000.00,029.6,027.5,000.0,038.0,031.2,30.4,0001.8,0007.41,0010.80,0007.06
2023-06-05 16:28:00,SystemResetWarning,0835.2,4.98,000.00,029.6,027.6,000.0,038.0,031.2,30.3,0001.8,0007.31,0010.64,0006.97
2023-06-05 16:29:00,SystemResetWarning,0835.2,5.00,000.00,029.6,027.8,000.0,038.0,031.2,30.9,0001.7,0007.21,0010.53,0006.88
2023-06-05 16:30:00,SystemResetWarning,0835.3,5.01,000.00,029.6,027.9,000.0,038.0,031.2,31.0,0002.0,0007.12,0010.34,0006.81
2023-06-05 16:31:00,SystemResetWarning,0835.2,5.01,000.00,029.6,028.0,000.0,038.0,031.3,32.0,0002.0,0007.07,0010.10,0006.77
2023-06-05 16:32:00,SystemResetWarning,0835.3,4.99,000.00,029.7,028.1,000.0,038.0,031.3,31.7,0002.0,0006.99,0009.85,0006.70
2023-06-05 16:33:00,SystemResetWarning,0835.2,5.00,000.00,029.7,028.1,000.0,038.0,031.3,31.7,0001.8,0006.89,0009.75,0006.61
2023-06-05 16:34:00,SystemResetWarning,0835.2,5.00,000.00,029.7,028.2,000.0,038.0,031.3,30.8,0001.6,0006.77,0009.61,0006.50
2023-06-05 16:35:00,SystemResetWarning,0835.3,5.00,000.00,029.7,028.3,000.0,038.0,031.4,30.8,0001.6,0006.67,0009.54,0006.38
2023-06-05 16:36:00,SystemResetWarning,0835.3,4.99,000.00,029.7,028.3,000.0,038.0,031.4,30.4,0001.4,0006.60,0009.45,0006.32
2023-06-05 16:37:00,SystemResetWarning,0835.3,5.00,000.00,029.8,028.4,000.0,038.1,031.4,29.8,0001.2,0006.51,0009.36,0006.23
2023-06-05 16:38:00,SystemResetWarning,0835.3,5.00,000.00,029.8,028.4,000.0,038.1,031.4,30.7,0000.9,0006.43,0009.24,0006.17
2023-06-05 16:39:00,SystemResetWarning,0835.3,5.00,000.00,029.8,028.5,000.0,038.1,031.5,30.8,0000.7,0006.40,0009.21,0006.13
2023-06-05 16:40:00,SystemResetWarning,0835.3,5.00,000.00,029.8,028.5,000.0,038.1,031.5,31.4,0000.6,0006.32,0009.15,0006.05
2023-06-05 16:41:00,SystemResetWarning,0835.3,5.00,000.00,029.9,028.5,000.0,038.1,031.5,29.9,0000.4,0006.24,0009.06,0005.98
2023-06-05 16:42:00,SystemResetWarning,0835.3,5.00,000.00,029.9,028.6,000.0,038.1,031.6,30.1,0000.1,0006.13,0008.91,0005.86
2023-06-05 16:43:00,SystemResetWarning,0835.2,5.00,000.00,029.9,028.5,000.0,038.1,031.6,31.5,-000.0,0005.98,0008.67,0005.73
2023-06-05 16:44:00,SystemResetWarning,0835.2,4.98,000.00,029.9,027.3,000.0,038.1,031.4,31.5,0000.0,0005.86,0008.57,0005.60
2023-06-05 16:45:00,SystemResetWarning,0835.3,5.01,000.00,029.8,026.3,000.0,038.0,031.3,31.1,-000.1,0005.76,0008.49,0005.49
2023-06-05 16:46:00,SystemResetWarning,0835.3,5.01,000.00,029.8,026.2,000.0,038.0,031.2,30.9,-000.6,0005.68,0008.38,0005.42
2023-06-05 16:47:00,SystemResetWarning,0835.3,4.99,000.00,029.7,026.4,000.0,038.0,031.1,30.8,-000.9,0005.64,0008.35,0005.37
2023-06-05 16:48:00,SystemResetWarning,0835.2,5.00,000.00,029.7,026.7,000.0,038.0,031.1,30.6,-000.9,0005.62,0008.33,0005.35
2023-06-05 16:49:00,SystemResetWarning,0835.2,5.00,000.00,029.7,026.9,000.0,038.0,031.2,31.1,-001.0,0005.62,0008.37,0005.34
2023-06-05 16:50:00,SystemResetWarning,0835.2,5.01,000.00,029.7,027.2,000.0,038.0,031.2,31.6,-000.7,0005.64,0008.44,0005.35
2023-06-05 16:51:00,SystemResetWarning,0835.2,5.01,000.00,029.7,027.4,000.0,038.0,031.2,31.5,-000.9,0005.74,0008.58,0005.43
2023-06-05 16:52:00,SystemResetWarning,0835.2,5.00,000.00,029.7,027.6,000.0,038.0,031.2,31.7,-000.8,0005.77,0008.67,0005.43
2023-06-05 16:53:00,SystemResetWarning,0835.2,4.99,000.00,029.7,027.8,000.0,038.0,031.3,30.6,-000.9,0005.67,0008.59,0005.35
2023-06-05 16:54:00,SystemResetWarning,0835.2,5.00,000.00,029.7,027.9,000.0,038.0,031.3,30.5,-000.6,0005.58,0008.52,0005.26
2023-06-05 16:55:00,SystemResetWarning,0835.2,5.01,000.00,029.7,028.0,000.0,038.0,031.3,30.2,-000.6,0005.48,0008.40,0005.17
2023-06-05 16:56:00,SystemResetWarning,0835.2,5.00,000.00,029.7,028.1,000.0,038.0,031.3,30.3,-000.7,0005.43,0008.31,0005.13
2023-06-05 16:57:00,SystemResetWarning,0835.2,5.00,000.00,029.7,028.2,000.0,038.0,031.4,31.5,-000.5,0005.38,0008.24,0005.08
2023-06-05 16:58:00,SystemResetWarning,0835.2,5.00,000.00,029.7,028.2,000.0,038.0,031.4,30.1,-000.4,0005.28,0008.12,0005.01
2023-06-05 16:59:00,SystemResetWarning,0835.2,5.00,000.00,029.8,028.3,000.0,038.1,031.4,29.5,-000.3,0005.20,0008.01,0004.94
